CW3077 Weather Reports


Display with metric or nautical units.
time (UTC)temp
F
wind
direction
speed
MPH
gust
MPH
rain 1hr
in
rain 24hr
in
rain mn
in
humidity
%
barometer
mb
20260903075516 81 203 5.0 11.0 0.00 0.01 0.00 79 1014.5
20260903075016 81 180 4.0 10.0 0.00 0.01 0.00 79 1014.5
20260903074515 81 203 4.0 11.0 0.00 0.01 0.00 78 1014.5
20260903074016 81 203 3.0 9.0 0.00 0.01 0.00 78 1014.5
20260903073515 81 203 5.0 12.0 0.00 0.01 0.00 77 1014.5
20260903073016 81 203 4.0 10.0 0.00 0.01 0.00 77 1014.6
20260903072515 81 158 4.0 11.0 0.00 0.01 0.00 76 1014.6
20260903072016 81 180 4.0 11.0 0.00 0.01 0.00 76 1014.7
20260903071516 81 180 5.0 11.0 0.00 0.01 0.00 76 1014.7
20260903071016 81 225 3.0 9.0 0.00 0.01 0.00 75 1014.8
20260903070516 81 203 4.0 9.0 0.00 0.01 0.00 75 1014.7
20260903070015 81 203 3.0 8.0 0.00 0.01 0.00 75 1014.7
20260903065535 81 203 4.0 11.0 0.00 0.01 0.00 75 1014.7
20260903065015 81 180 4.0 14.0 0.00 0.01 0.00 74 1014.6
20260903064516 81 203 4.0 10.0 0.00 0.01 0.00 75 1014.7
20260903064015 81 203 3.0 11.0 0.00 0.01 0.00 75 1014.8
20260903063515 81 180 4.0 9.0 0.00 0.01 0.00 75 1014.8
20260903063015 81 158 3.0 10.0 0.00 0.01 0.00 75 1014.8
20260903062515 81 203 4.0 10.0 0.00 0.01 0.00 76 1014.8
20260903062015 81 180 4.0 10.0 0.00 0.01 0.00 76 1014.9
20260903061535 81 180 3.0 9.0 0.00 0.01 0.00 76 1014.7
20260903061015 81 180 2.0 9.0 0.00 0.01 0.00 76 1014.7
20260903060516 81 158 3.0 9.0 0.00 0.01 0.00 77 1014.9
20260903060015 81 158 4.0 11.0 0.00 0.01 0.00 77 1014.9
20260903055515 81 158 2.0 10.0 0.00 0.01 0.00 77 1014.9
20260903055015 81 158 3.0 10.0 0.00 0.01 0.00 77 1015.0
20260903054535 81 135 3.0 7.0 0.00 0.01 0.00 77 1015.2
20260903054016 81 158 3.0 9.0 0.00 0.01 0.00 77 1014.9
20260903053515 81 135 4.0 11.0 0.00 0.01 0.00 76 1014.7
20260903053015 81 135 4.0 10.0 0.00 0.01 0.00 76 1014.8
20260903052515 81 158 4.0 11.0 0.00 0.01 0.00 76 1014.8
20260903052015 81 135 5.0 11.0 0.00 0.01 0.00 76 1014.9
20260903051535 81 158 3.0 7.0 0.00 0.01 0.00 75 1015.0
20260903051015 82 135 3.0 7.0 0.00 0.01 0.00 74 1014.9
20260903050515 82 135 2.0 7.0 0.00 0.01 0.00 74 1014.9
20260903050016 82 135 2.0 8.0 0.00 0.01 0.01 73 1014.9
20260903045516 82 135 4.0 8.0 0.00 0.01 0.01 73 1014.8
20260903045036 82 113 3.0 10.0 0.00 0.01 0.01 73 1014.7
20260903044516 82 135 2.0 5.0 0.00 0.01 0.01 72 1014.7
20260903044016 82 158 2.0 6.0 0.00 0.01 0.01 72 1014.8
20260903043516 83 158 2.0 6.0 0.00 0.01 0.01 71 1014.7
20260903043016 83 90 4.0 8.0 0.00 0.01 0.01 70 1014.7
20260903042516 83 135 3.0 8.0 0.00 0.01 0.01 70 1014.7
20260903042016 83 113 3.0 5.0 0.00 0.01 0.01 69 1014.7
20260903041516 83 90 4.0 12.0 0.00 0.01 0.01 69 1014.7
20260903041016 84 135 4.0 12.0 0.00 0.01 0.01 68 1014.7
20260903040516 84 135 3.0 8.0 0.00 0.01 0.01 67 1014.9
20260903040016 84 90 4.0 10.0 0.00 0.01 0.01 66 1014.8
20260903035516 85 113 4.0 8.0 0.00 0.01 0.01 66 1014.8
20260903035016 85 135 6.0 12.0 0.00 0.01 0.01 65 1015.0
20260903034516 85 135 5.0 11.0 0.00 0.01 0.01 64 1015.0
20260903034016 85 90 8.0 18.0 0.00 0.01 0.01 63 1015.1
20260903033516 86 90 6.0 16.0 0.00 0.01 0.01 63 1014.9
20260903033016 86 90 4.0 12.0 0.00 0.01 0.01 62 1014.9
20260903032516 86 90 6.0 16.0 0.00 0.01 0.01 62 1014.6
20260903032016 86 90 5.0 11.0 0.00 0.01 0.01 61 1014.4
20260903031516 86 90 6.0 15.0 0.00 0.01 0.01 60 1014.4
20260903031036 86 90 5.0 12.0 0.00 0.01 0.01 59 1014.3
20260903030516 87 90 6.0 10.0 0.00 0.01 0.01 58 1014.2
20260903030016 87 90 6.0 11.0 0.00 0.01 0.01 58 1014.0
20260903025516 87 90 6.0 15.0 0.00 0.01 0.01 57 1013.9
20260903025016 87 90 6.0 11.0 0.00 0.01 0.01 57 1013.8
20260903024516 88 90 5.0 9.0 0.00 0.01 0.01 56 1013.7
20260903024016 88 90 4.0 10.0 0.00 0.01 0.01 56 1013.6
20260903023516 88 90 4.0 11.0 0.00 0.01 0.01 56 1013.5
20260903023036 87 135 2.0 4.0 0.00 0.01 0.01 57 1013.3
20260903022516 87 0.0 1.0 0.00 0.01 0.01 58 1013.1
20260903022016 87 0.0 2.0 0.00 0.01 0.01 57 1013.1
20260903021516 88 0.0 2.0 0.00 0.01 0.01 57 1013.1
20260903021016 88 135 1.0 3.0 0.00 0.01 0.01 56 1012.9
20260903020515 88 135 1.0 3.0 0.00 0.01 0.01 56 1012.9
20260903020016 88 135 1.0 3.0 0.00 0.01 0.01 56 1012.7
20260903015517 89 135 2.0 7.0 0.00 0.01 0.01 56 1012.8
20260903015016 89 135 2.0 4.0 0.00 0.01 0.01 55 1012.6
20260903014515 89 135 2.0 5.0 0.00 0.01 0.01 55 1012.6
20260903014016 89 135 2.0 5.0 0.00 0.01 0.01 55 1012.5
20260903013516 89 135 2.0 5.0 0.00 0.01 0.01 55 1012.5
20260903013016 89 135 3.0 6.0 0.00 0.01 0.01 54 1012.5
20260903012515 89 135 2.0 5.0 0.00 0.01 0.01 53 1012.5
20260903012016 89 135 2.0 7.0 0.00 0.01 0.01 52 1012.6
20260903011516 89 135 3.0 5.0 0.00 0.01 0.01 52 1012.4
20260903011036 89 158 3.0 6.0 0.00 0.01 0.01 53 1012.4
20260903010515 89 135 2.0 4.0 0.00 0.01 0.01 53 1012.4
20260903010016 90 135 1.0 3.0 0.01 0.01 0.01 53 1012.4
20260903005515 90 135 2.0 4.0 0.01 0.01 0.01 53 1012.4
20260903005016 90 135 2.0 4.0 0.01 0.01 0.01 54 1012.4
20260903004516 90 158 3.0 5.0 0.01 0.01 0.01 54 1012.4
20260903004015 90 158 2.0 5.0 0.01 0.01 0.01 54 1012.3
20260903003516 89 158 2.0 4.0 0.01 0.01 0.01 55 1012.2
20260903003016 89 158 2.0 6.0 0.01 0.01 0.01 57 1012.4
20260903002535 89 180 2.0 7.0 0.01 0.01 0.01 58 1012.4
20260903002015 88 180 2.0 4.0 0.01 0.01 0.01 61 1012.3
20260903001516 88 0.0 1.0 0.01 0.01 0.01 63 1012.1
20260903001015 88 180 1.0 3.0 0.01 0.01 0.01 63 1012.0
20260903000515 87 0.0 2.0 0.01 0.01 0.01 63 1012.2
20260903000036 86 180 1.0 2.0 0.00 0.00 0.00 63 1012.0
20260902235515 86 180 1.0 3.0 0.00 0.00 0.00 67 1012.0
20260902235016 86 180 2.0 4.0 0.00 0.00 0.00 66 1012.0
20260902234535 87 248 3.0 6.0 0.00 0.00 0.00 66 1012.2
20260902234015 88 293 2.0 8.0 0.00 0.00 0.00 61 1012.3
20260902233515 87 338 2.0 4.0 0.00 0.00 0.00 58 1012.3
20260902233035 89 338 4.0 7.0 0.00 0.00 0.00 59 1012.3
20260902232515 89 315 4.0 9.0 0.00 0.00 0.00 58 1012.3
20260902232016 91 315 3.0 9.0 0.00 0.00 0.00 55 1012.5
20260902231515 91 293 2.0 5.0 0.00 0.00 0.00 54 1012.5
20260902231016 89 315 4.0 12.0 0.00 0.00 0.00 56 1012.4
20260902230515 90 270 4.0 9.0 0.00 0.00 0.00 53 1012.5
20260902230035 91 293 7.0 17.0 0.00 0.00 0.00 52 1012.5
20260902225515 93 270 5.0 12.0 0.00 0.00 0.00 49 1012.5
20260902225017 93 270 5.0 11.0 0.00 0.00 0.00 48 1012.5
20260902224515 94 270 5.0 12.0 0.00 0.00 0.00 47 1012.4
20260902224015 95 270 3.0 5.0 0.00 0.00 0.00 46 1012.4
20260902223515 96 23 2.0 5.0 0.00 0.00 0.00 46 1012.5
20260902223015 97 315 2.0 5.0 0.00 0.00 0.00 45 1012.5
20260902222515 97 293 2.0 4.0 0.00 0.00 0.00 43 1012.4
20260902222015 97 293 1.0 3.0 0.00 0.00 0.00 43 1012.3
20260902221515 97 293 1.0 2.0 0.00 0.00 0.00 41 1012.4
20260902221015 98 293 1.0 3.0 0.00 0.00 0.00 41 1012.5
20260902220515 98 0.0 2.0 0.00 0.00 0.00 41 1012.4
20260902220015 98 293 1.0 3.0 0.00 0.00 0.00 40 1012.5
20260902215515 98 293 1.0 4.0 0.00 0.00 0.00 41 1012.5
20260902215015 99 293 1.0 3.0 0.00 0.00 0.00 40 1012.7
20260902214515 99 293 2.0 5.0 0.00 0.00 0.00 41 1012.6
20260902214015 100 68 2.0 5.0 0.00 0.00 0.00 39 1012.6
20260902213515 101 45 4.0 8.0 0.00 0.00 0.00 38 1012.7
20260902213015 101 315 2.0 6.0 0.00 0.00 0.00 38 1012.7
20260902212515 101 225 2.0 4.0 0.00 0.00 0.00 37 1012.7
20260902212015 102 180 2.0 5.0 0.00 0.00 0.00 38 1012.7
20260902211515 102 180 2.0 3.0 0.00 0.00 0.00 38 1012.8
20260902211015 102 225 2.0 6.0 0.00 0.00 0.00 38 1012.8
20260902210515 101 45 1.0 5.0 0.00 0.00 0.00 39 1012.9
20260902210015 102 45 3.0 6.0 0.00 0.00 0.00 36 1012.9
20260902205515 101 113 3.0 10.0 0.00 0.00 0.00 38 1012.9
20260902205015 101 45 3.0 8.0 0.00 0.00 0.00 37 1013.1
20260902204515 101 23 4.0 9.0 0.00 0.00 0.00 38 1013.1
20260902204015 99 23 2.0 5.0 0.00 0.00 0.00 42 1013.1
20260902203515 99 23 3.0 6.0 0.00 0.00 0.00 41 1013.2
20260902203015 99 338 3.0 8.0 0.00 0.00 0.00 40 1013.2
20260902202535 98 315 2.0 6.0 0.00 0.00 0.00 42 1013.3
20260902202015 99 315 1.0 2.0 0.00 0.00 0.00 41 1013.4
20260902201515 99 315 2.0 5.0 0.00 0.00 0.00 39 1013.4
20260902201055 100 293 2.0 5.0 0.00 0.00 0.00 40 1013.5
20260902200515 100 315 1.0 4.0 0.00 0.00 0.00 39 1013.6
20260902200015 101 225 3.0 6.0 0.00 0.00 0.00 39 1013.7
20260902195555 104 315 2.0 7.0 0.00 0.00 0.00 35 1013.9
20260902195015 104 23 2.0 6.0 0.00 0.00 0.00 37 1014.1
20260902194517 103 23 3.0 7.0 0.00 0.00 0.00 36 1014.2
20260902194035 103 270 3.0 8.0 0.00 0.00 0.00 37 1014.1
20260902193536 104 225 3.0 7.0 0.00 0.00 0.00 38 1014.4
20260902193015 103 248 3.0 7.0 0.00 0.00 0.00 38 1014.4
20260902192515 103 203 3.0 8.0 0.00 0.00 0.00 37 1014.4
20260902192015 104 45 3.0 8.0 0.00 0.00 0.00 37 1014.6
20260902191515 101 270 2.0 5.0 0.00 0.00 0.00 39 1014.6
20260902191017 103 248 2.0 6.0 0.00 0.00 0.00 38 1014.7
20260902190517 101 315 2.0 4.0 0.00 0.00 0.00 39 1014.7
20260902190017 101 0 2.0 4.0 0.00 0.00 0.00 38 1014.8
20260902185535 101 23 2.0 5.0 0.00 0.00 0.00 41 1014.9
20260902185016 102 23 3.0 8.0 0.00 0.00 0.00 37 1014.9
20260902184537 101 293 2.0 4.0 0.00 0.00 0.00 38 1015.0
20260902184017 101 293 2.0 8.0 0.00 0.00 0.00 38 1015.2
20260902183517 100 338 3.0 7.0 0.00 0.00 0.00 39 1015.2
20260902183017 99 0 2.0 7.0 0.00 0.00 0.00 41 1015.3
20260902182517 98 315 3.0 7.0 0.00 0.00 0.00 43 1015.1
20260902182017 99 315 2.0 7.0 0.00 0.00 0.00 40 1015.4
20260902181517 100 45 2.0 5.0 0.00 0.00 0.00 40 1015.4
20260902181057 100 315 1.0 3.0 0.00 0.00 0.00 40 1015.6
20260902180517 99 315 3.0 8.0 0.00 0.00 0.00 41 1015.7
20260902180017 98 225 2.0 7.0 0.00 0.00 0.00 43 1015.9
20260902175517 97 225 3.0 7.0 0.00 0.00 0.00 43 1015.8
20260902175037 99 158 3.0 10.0 0.00 0.00 0.00 42 1016.0
20260902174517 101 113 3.0 9.0 0.00 0.00 0.00 41 1016.1
20260902174017 100 180 4.0 10.0 0.00 0.00 0.00 41 1016.2
20260902173517 99 180 3.0 6.0 0.00 0.00 0.00 42 1016.4
20260902173017 98 225 3.0 7.0 0.00 0.00 0.00 43 1016.4
20260902172517 98 248 3.0 8.0 0.00 0.00 0.00 42 1016.3
20260902172016 99 225 2.0 6.0 0.00 0.00 0.00 43 1016.5
20260902171517 98 248 3.0 6.0 0.00 0.00 0.00 42 1016.6
20260902171016 98 270 2.0 6.0 0.00 0.00 0.00 43 1016.6
20260902170517 97 225 2.0 5.0 0.00 0.00 0.00 44 1016.6
20260902170016 97 203 2.0 9.0 0.00 0.00 0.00 44 1016.7
20260902165516 97 0 2.0 5.0 0.00 0.00 0.00 45 1016.7
20260902165017 96 270 3.0 8.0 0.00 0.00 0.00 46 1016.9
20260902164516 97 225 3.0 8.0 0.00 0.00 0.00 45 1017.1
20260902164018 97 225 4.0 9.0 0.00 0.00 0.00 42 1017.0
20260902163537 96 293 3.0 9.0 0.00 0.00 0.00 45 1017.0
20260902163017 96 315 3.0 8.0 0.00 0.00 0.00 46 1017.1
20260902162557 95 270 2.0 7.0 0.00 0.00 0.00 46 1017.1
20260902162016 95 270 2.0 7.0 0.00 0.00 0.00 46 1017.0
20260902161517 94 270 4.0 8.0 0.00 0.00 0.00 47 1017.0
20260902161017 94 270 5.0 10.0 0.00 0.00 0.00 46 1016.9
20260902160516 94 293 3.0 7.0 0.00 0.00 0.00 48 1017.0
20260902160019 94 270 2.0 7.0 0.00 0.00 0.00 51 1016.9
20260902155517 93 225 3.0 8.0 0.00 0.00 0.00 51 1017.0
20260902155017 93 270 4.0 7.0 0.00 0.00 0.00 49 1017.0
20260902154516 93 248 3.0 8.0 0.00 0.00 0.00 50 1016.8
20260902154016 92 270 3.0 7.0 0.00 0.00 0.00 52 1017.0
20260902153516 92 293 2.0 6.0 0.00 0.00 0.00 53 1017.1
20260902153017 91 315 2.0 6.0 0.00 0.00 0.00 55 1017.0
20260902152516 91 248 2.0 5.0 0.00 0.00 0.00 57 1017.1
20260902152037 91 248 2.0 4.0 0.00 0.00 0.00 55 1017.1
20260902151516 90 248 3.0 7.0 0.00 0.00 0.00 55 1017.1
20260902151016 90 293 1.0 4.0 0.00 0.00 0.00 58 1017.2
20260902150516 89 293 2.0 5.0 0.00 0.00 0.00 59 1017.1
20260902150016 89 248 1.0 4.0 0.00 0.00 0.00 57 1017.1
20260902145517 88 248 1.0 4.0 0.00 0.00 0.00 58 1017.2
20260902145016 88 248 1.0 3.0 0.00 0.00 0.00 60 1017.1
20260902144516 87 248 2.0 7.0 0.00 0.00 0.00 62 1017.1
20260902144016 87 248 2.0 6.0 0.00 0.00 0.00 60 1017.3
20260902143516 87 225 4.0 8.0 0.00 0.00 0.00 61 1017.1
20260902143016 86 248 3.0 9.0 0.00 0.00 0.00 61 1017.1
20260902142516 86 225 4.0 7.0 0.00 0.00 0.00 63 1017.3
20260902142016 85 270 3.0 6.0 0.00 0.00 0.00 63 1017.3
20260902141536 85 248 2.0 9.0 0.00 0.00 0.00 64 1017.3
20260902141016 84 293 3.0 9.0 0.00 0.00 0.00 65 1017.0
20260902140516 84 270 2.0 4.0 0.00 0.00 0.00 67 1017.0
20260902140036 83 270 3.0 7.0 0.00 0.00 0.00 69 1016.9
20260902135516 82 270 2.0 6.0 0.00 0.00 0.00 69 1016.7
20260902135036 82 248 2.0 6.0 0.00 0.00 0.00 71 1016.8
20260902134517 81 248 3.0 5.0 0.00 0.00 0.00 71 1016.8
20260902134016 80 203 2.0 5.0 0.00 0.00 0.00 72 1016.8
20260902133517 80 180 2.0 6.0 0.00 0.00 0.00 74 1016.7
20260902133036 79 158 1.0 4.0 0.00 0.00 0.00 75 1016.6
20260902132516 79 158 1.0 4.0 0.00 0.00 0.00 75 1016.6
20260902132016 78 0.0 0.0 0.00 0.00 0.00 77 1016.6
20260902131517 77 0.0 3.0 0.00 0.00 0.00 78 1016.4
20260902131016 77 0.0 3.0 0.00 0.00 0.00 78 1016.5
20260902130556 77 0.0 0.0 0.00 0.00 0.00 78 1016.5
20260902130036 77 0.0 0.0 0.00 0.00 0.00 79 1016.4
20260902125516 77 0.0 1.0 0.00 0.00 0.00 79 1016.4
20260902125036 77 0.0 0.0 0.00 0.00 0.00 78 1016.2
20260902124536 77 0.0 0.0 0.00 0.00 0.00 78 1016.3
20260902124016 77 0.0 0.0 0.00 0.00 0.00 78 1016.2
20260902123516 77 0.0 0.0 0.00 0.00 0.00 77 1016.2
20260902123016 77 0.0 0.0 0.00 0.00 0.00 77 1016.1
20260902122516 77 0.0 0.0 0.00 0.00 0.00 77 1016.2
20260902122016 77 0.0 0.0 0.00 0.00 0.00 77 1016.1
20260902121516 77 0.0 0.0 0.00 0.00 0.00 77 1016.0
20260902121016 77 0.0 0.0 0.00 0.00 0.00 76 1016.0
20260902120516 77 0.0 0.0 0.00 0.00 0.00 76 1016.1
20260902120056 78 0.0 0.0 0.00 0.00 0.00 76 1016.1
20260902115516 78 0.0 0.0 0.00 0.00 0.00 76 1016.1
20260902115016 78 0.0 0.0 0.00 0.00 0.00 76 1016.1
20260902114516 78 0.0 0.0 0.00 0.00 0.00 75 1016.1
20260902114016 78 0.0 0.0 0.00 0.00 0.00 75 1016.0
20260902113516 78 0.0 1.0 0.00 0.00 0.00 75 1016.1
20260902113016 78 0.0 2.0 0.00 0.00 0.00 75 1016.0
20260902112516 78 0.0 2.0 0.00 0.00 0.00 75 1015.9
20260902112016 78 158 1.0 3.0 0.00 0.00 0.00 75 1015.7
20260902111516 78 158 1.0 3.0 0.00 0.00 0.00 75 1015.8
20260902111016 78 158 2.0 4.0 0.00 0.00 0.00 75 1015.8
20260902110516 78 158 1.0 3.0 0.00 0.00 0.00 75 1015.9
20260902110016 78 135 1.0 4.0 0.00 0.00 0.00 76 1015.8
20260902105516 78 135 1.0 2.0 0.00 0.00 0.00 77 1015.8
20260902105016 78 135 1.0 3.0 0.00 0.00 0.00 77 1015.7
20260902104516 77 113 1.0 3.0 0.00 0.00 0.00 78 1015.9
20260902104037 77 0.0 0.0 0.00 0.00 0.00 78 1016.0
20260902103537 77 0.0 0.0 0.00 0.00 0.00 78 1015.8
20260902103017 78 0.0 0.0 0.00 0.00 0.00 78 1015.9
20260902102516 78 0.0 0.0 0.00 0.00 0.00 78 1015.9
20260902102016 78 0.0 0.0 0.00 0.00 0.00 78 1015.8
20260902101516 78 0.0 0.0 0.00 0.00 0.00 77 1015.8
20260902101016 78 0.0 0.0 0.00 0.00 0.00 77 1015.8
20260902100516 78 0.0 0.0 0.00 0.00 0.00 76 1015.8
20260902100016 78 0.0 0.0 0.00 0.00 0.00 76 1015.9
20260902095516 79 0.0 0.0 0.00 0.00 0.00 76 1015.9
20260902095016 79 0.0 0.0 0.00 0.00 0.00 75 1016.0
20260902094515 79 0.0 0.0 0.00 0.00 0.00 76 1016.1
20260902094016 79 0.0 0.0 0.00 0.00 0.00 76 1016.0
20260902093516 79 0.0 0.0 0.00 0.00 0.00 75 1016.1
20260902093016 79 0.0 0.0 0.00 0.00 0.00 75 1016.2
20260902092517 79 0.0 0.0 0.00 0.00 0.00 75 1016.0
20260902092016 79 0.0 0.0 0.00 0.00 0.00 75 1016.1
20260902091516 79 0.0 0.0 0.00 0.00 0.00 75 1016.2
20260902091016 79 0.0 0.0 0.00 0.00 0.00 75 1016.1
20260902090516 79 0.0 0.0 0.00 0.00 0.00 75 1016.2
20260902090016 79 0.0 0.0 0.00 0.00 0.00 74 1016.0
20260902085516 79 0.0 3.0 0.00 0.00 0.00 74 1016.0
20260902085015 79 113 1.0 4.0 0.00 0.00 0.00 74 1016.1
20260902084516 80 0.0 1.0 0.00 0.00 0.00 73 1016.2
20260902084015 80 0.0 2.0 0.00 0.00 0.00 72 1016.2
20260902083515 80 113 1.0 2.0 0.00 0.00 0.00 72 1016.1
20260902083016 80 113 1.0 3.0 0.00 0.00 0.00 72 1016.1
20260902082536 80 113 1.0 2.0 0.00 0.00 0.00 72 1016.2
20260902082015 80 113 1.0 3.0 0.00 0.00 0.00 72 1016.3
20260902081515 80 90 1.0 4.0 0.00 0.00 0.00 71 1016.3
20260902081015 80 90 1.0 3.0 0.00 0.00 0.00 71 1016.2
20260902080536 80 90 1.0 3.0 0.00 0.00 0.00 71 1016.4
20260902080016 81 90 1.0 3.0 0.00 0.00 0.00 71 1016.6